EW8108 Weather Reports


time (UTC)temp
C
wind
direction
speed
KPH
gust
KPH
rain 1hr
cm
rain 24hr
cm
rain mn
cm
humidity
%
barometer
mb
20260505195605 29 259 0.0 6.4 0.00 0.00 0.00 59 968.5
20260505194534 28 297 0.0 9.7 0.00 0.00 0.00 60 968.6
20260505192426 27 193 0.0 8.0 0.00 0.00 0.00 60 968.9
20260505191407 27 220 0.0 6.4 0.00 0.00 0.00 60 968.9
20260505190410 27 234 0.0 4.8 0.00 0.00 0.00 60 968.9
20260505184243 27 273 0.0 9.7 0.00 0.00 0.00 59 969.3
20260505183213 26 255 0.0 4.8 0.00 0.00 0.00 57 969.4
20260505182214 26 271 0.0 8.0 0.00 0.00 0.00 53 969.5
20260505181224 25 268 0.0 8.0 0.00 0.00 0.00 51 969.6
20260505180232 25 252 0.0 9.7 0.00 0.00 0.00 47 969.7
20260505175242 25 265 0.0 8.0 0.00 0.00 0.00 44 969.9
20260505173145 25 194 0.0 0.0 0.00 0.00 0.00 30 970.0
20260505172137 24 255 0.0 1.6 0.00 0.00 0.00 20 970.0
20260505171155 24 296 0.0 3.2 0.00 0.00 0.00 16 970.1
20260505164959 23 231 0.0 8.0 0.00 0.00 0.00 1 970.1
20260505163939 23 266 0.0 4.8 0.00 0.00 0.00 1 970.2
20260505162933 23 209 0.0 3.2 0.00 0.00 0.00 1 970.1
20260505161925 23 257 0.0 1.6 0.00 0.00 0.00 1 970.0
20260505160934 23 239 0.0 6.4 0.00 0.00 0.00 1 970.2
20260505153010 22 234 0.0 4.8 0.00 0.00 0.00 1 970.1
20260505152016 22 267 0.0 3.2 0.00 0.00 0.00 1 970.2
20260505151019 22 272 0.0 6.4 0.00 0.00 0.00 1 970.1
20260505124834 21 267 0.0 0.0 0.00 0.00 0.00 1 969.0
20260505123844 21 277 0.0 8.0 0.00 0.00 0.00 1 968.8
20260505122908 21 265 0.0 6.4 0.00 0.00 0.00 1 968.7
20260505121928 21 290 0.0 6.4 0.00 0.00 0.00 1 968.6
20260505120929 21 223 0.0 6.4 0.00 0.00 0.00 1 968.4
20260505115927 21 220 0.0 6.4 0.00 0.00 0.00 1 968.4
20260505114852 21 229 0.0 1.6 0.00 0.00 0.00 1 968.1
20260505113910 21 215 0.0 12.9 0.00 0.00 0.00 1 968.1
20260505112931 21 221 0.0 6.4 0.00 0.00 0.00 1 968.2
20260505111948 21 267 0.0 12.9 0.00 0.00 0.00 1 968.3
20260505110933 21 208 0.0 9.7 0.00 0.00 0.00 1 968.0
20260505101654 21 225 0.0 8.0 0.00 0.00 0.00 1 968.4
20260505100624 21 259 0.0 3.2 0.00 0.00 0.00 1 968.6
20260505095602 21 261 0.0 0.0 0.00 0.00 0.00 1 968.5
20260505093437 21 275 0.0 8.0 0.00 0.00 0.00 1 968.5
20260505092449 21 263 0.0 8.0 0.00 0.00 0.00 1 968.7
20260505091449 21 238 0.0 6.4 0.00 0.00 0.00 1 968.6
20260505090425 21 252 0.0 4.8 0.00 0.00 0.00 1 968.8
20260505084321 21 146 0.0 8.0 0.00 0.00 0.00 1 968.9
20260505083306 21 248 0.0 6.4 0.00 0.00 0.00 1 969.1
20260505082304 21 168 0.0 8.0 0.00 0.00 0.00 1 969.1
20260505081244 21 281 0.0 0.0 0.00 0.00 0.00 1 969.1
20260505080234 21 182 0.0 12.9 0.00 0.00 0.00 1 969.2
20260505075232 21 254 0.0 12.9 0.00 0.00 0.00 1 969.3
20260505074235 21 263 0.0 9.7 0.00 0.00 0.00 1 969.5
20260505073237 21 248 0.0 9.7 0.00 0.00 0.00 1 969.6
20260505071122 21 197 0.0 8.0 0.00 0.00 0.00 1 969.9
20260505070138 21 263 0.0 3.2 0.00 0.00 0.00 1 970.1
20260505065134 21 294 0.0 8.0 0.00 0.00 0.00 1 970.1
20260505064138 21 267 0.0 4.8 0.00 0.00 0.00 1 970.2
20260505063116 21 243 0.0 3.2 0.00 0.00 0.00 1 970.2
20260505062053 21 264 0.0 9.7 0.00 0.00 0.00 1 970.4
20260505061108 21 275 0.0 9.7 0.00 0.00 0.00 1 970.5
20260505060114 21 253 0.0 9.7 0.00 0.00 0.00 1 970.5
20260505055051 21 234 0.0 9.7 0.00 0.00 0.00 1 970.5
20260505054039 21 240 0.0 8.0 0.00 0.00 0.00 1 970.4
20260505053059 21 225 0.0 6.4 0.00 0.00 0.00 1 970.4
20260505050933 22 261 0.0 6.4 0.00 0.00 0.00 1 970.4
20260505035806 22 246 0.0 4.8 0.00 0.00 0.00 7 970.3
20260505034807 22 238 0.0 8.0 0.00 0.00 0.00 14 970.3
20260505033812 22 200 0.0 8.0 0.00 0.00 0.00 19 970.3
20260505031638 22 229 0.0 0.0 0.00 0.00 0.00 28 970.2
20260505030613 22 238 0.0 9.7 0.00 0.00 0.00 34 970.2
20260505025612 22 238 0.0 9.7 0.00 0.00 0.00 42 970.3
20260505024623 22 266 0.0 1.6 0.00 0.00 0.00 49 970.3
20260505023630 22 267 0.0 3.2 0.00 0.00 0.00 54 970.2
20260505022556 22 269 0.0 0.0 0.00 0.00 0.00 56 970.2
20260505021549 22 259 0.0 0.0 0.00 0.00 0.00 58 970.1
20260505020547 22 254 0.0 3.2 0.00 0.00 0.00 59 970.0
20260505015542 22 254 0.0 3.2 0.00 0.00 0.00 61 969.9
20260505014530 22 253 0.0 0.0 0.00 0.00 0.00 62 970.0
20260505013521 23 240 0.0 6.4 0.00 0.00 0.00 63 970.0
20260505012529 23 240 0.0 4.8 0.00 0.00 0.00 64 970.0
20260505011509 23 236 0.0 4.8 0.00 0.00 0.00 64 970.1
20260505010438 24 231 0.0 6.4 0.00 0.00 0.00 64 969.9
20260505005418 24 219 0.0 8.0 0.00 0.00 0.00 63 969.8
20260505004436 24 238 0.0 12.9 0.00 0.00 0.00 63 969.9
20260505002306 25 245 0.0 9.7 0.00 0.00 0.00 62 969.8
20260505000113 25 224 0.0 14.5 0.00 0.00 0.00 62 969.7
20260504233950 26 327 0.0 14.5 0.00 0.00 0.00 61 970.1
20260504233000 26 218 0.0 8.0 0.00 0.00 0.00 61 970.1
20260504232007 26 215 0.0 11.3 0.00 0.00 0.00 60 970.1
20260504231011 27 215 0.0 11.3 0.00 0.00 0.00 58 970.2
20260504225957 27 262 0.0 12.9 0.00 0.00 0.00 58 970.2
20260504224952 27 281 0.0 12.9 0.00 0.00 0.00 57 970.5
20260504223934 27 244 1.6 11.3 0.00 0.00 0.00 57 970.6
20260504222953 28 217 0.0 12.9 0.00 0.00 0.00 56 970.5
20260504222010 28 260 0.0 12.9 0.00 0.00 0.00 57 970.6
20260504221005 28 240 0.0 12.9 0.00 0.00 0.00 56 970.7
20260504214826 28 205 0.0 12.9 0.00 0.00 0.00 56 970.9
20260504213851 28 200 0.0 9.7 0.00 0.00 0.00 56 970.8
20260504212910 28 221 0.0 9.7 0.00 0.00 0.00 56 971.0
20260504211859 28 252 0.0 8.0 0.00 0.00 0.00 56 971.2
20260504210851 28 200 0.0 11.3 0.00 0.00 0.00 56 971.4
20260504205842 27 265 0.0 11.3 0.00 0.00 0.00 58 971.5
20260504204859 27 229 0.0 9.7 0.00 0.00 0.00 59 971.8
20260504203919 27 5 0.0 6.4 0.00 0.00 0.00 58 971.9
20260504202919 27 255 0.0 11.3 0.00 0.00 0.00 57 972.0
20260504201900 27 292 0.0 11.3 0.00 0.00 0.00 57 972.3
20260504200825 27 249 0.0 9.7 0.00 0.00 0.00 58 972.6